Overview Statistics Trail Chart Weather Telemetry Raw packets
 

This is the latest recevied weather packets stored in our database for station/object SP5MRF. If no packets are shown the sender has not sent any weather packets the latest 10 day(s).

<< 11 12 13 14 15 16 17 >>
Time Temp. Humidity Pressure Rain* Wind** Luminosity Snow
1788521326 22.78° C 60% 1006.5 hPa 0 mm - - -
1788520846 22.78° C 60% 1006.4 hPa 0 mm - - -
1788520370 23.33° C 61% 1006.8 hPa 0 mm - - -
1788519888 22.78° C 62% 1006.7 hPa 0 mm - - -
1788518926 22.78° C 65% 1007 hPa 0 mm - - -
1788518446 22.22° C 67% 1006.9 hPa 0 mm - - -
1788517966 22.22° C 67% 1007.1 hPa 0 mm - - -
1788517486 22.22° C 67% 1007.1 hPa 0 mm - - -
1788517007 22.22° C 68% 1007.3 hPa 0 mm - - -
1788516526 21.67° C 69% 1007.3 hPa 0 mm - - -
1788516046 21.67° C 71% 1007.4 hPa 0 mm - - -
1788515566 21.11° C 71% 1007.4 hPa 0 mm - - -
1788514606 21.11° C 72% 1007.4 hPa 0 mm - - -
1788514128 20.56° C 74% 1007.4 hPa 0 mm - - -
1788513646 20° C 76% 1007.6 hPa 0 mm - - -
1788513166 19.44° C 77% 1007.6 hPa 0 mm - - -
1788512689 19.44° C 76% 1007.9 hPa 0 mm - - -
1788512206 20° C 76% 1008 hPa 0 mm - - -
1788511755 20° C 76% 1007.9 hPa 0 mm - - -
1788511246 20° C 78% 1007.8 hPa 0 mm - - -
1788510766 19.44° C 79% 1008.1 hPa 0 mm - - -
1788510286 18.89° C 80% 1008.1 hPa 0 mm - - -
1788509807 18.89° C 80% 1008.2 hPa 0 mm - - -
1788509326 18.89° C 80% 1008.2 hPa 0 mm - - -
1788508848 18.89° C 80% 1008.2 hPa 0 mm - - -

* Rain latest hour (hover to see other rain measurements)
** Current wind speed in m/s (hover to see current wind gust speed)